map of KOE home
Great Circle Mapper logo
KOE - Airport
Location
City:  Kupang, Indonesia
Name:Eltari
ICAO / IATA:WATT / KOE

Details
Type:Airport (Aerodrome, Airfield)
Use:Public/Civil, Military, International (customs port of entry)
Latitude:1010'18"S (-10.171582)
Longitude:12340'16"E (123.671136)
Datum:WGS 1984
Elevation:335 ft (102 m)
Variation:1.77E (WMM2015 magnetic declination)
-0.10 annual change
Runways:2
Longest:8202 × 148 ft (2500 × 45 m), paved

Time
Time Zone:UTC+8
Local Time:

Weather
METAR:WATT 070100Z 29003KT 9999 SCT017 27/24 Q1010 NOSIG
TAF:WATT 061700Z 0618/0718 00000KT 6000 FEW014CB BKN014
TEMPO 0620/0623 5000 -RA BKN015
BECMG 0700/0702 28004KT 7000 BKN016
BECMG 0703/0705 VRB04KT 9999 NSW SCT017

Related Locations
Nearby:
Farthest:OGL: 12173 mi / 19590 km
Ogle, GY

Find:

   beyond  
but within

Other Information
Maps:
NOTAMs:
Links:
Sources:

  
flag of Indonesia   

Sectional Chart

Flight Planning
at skyvector.com

Satellite Image

Google Maps Satellite View

 

Copyright © 2004-2015 Karl L. Swartz. All rights reserved.
The Great Circle Mapper name and logo are trademarks of the Great Circle Mapper.
All other trademarks mentioned herein belong to their respective owners.
Please see credits for attibutions and further copyright information.

  Follow gcmap on Facebook Follow gcmap on Twitter Follow gcmap on Google+

hCard Microformat

Geo Microformat